Wind_Speed
29 29 31 33 31 30 31 33 34 28 26 24 24 26 26 27 28 28 27 24 21 20 20 21 23 26 28 28 29 28 27 26 24 23 21 20 20 19 19 18 19 21 20 22
23 25 29 30 28 30 31 33 34 34 31 27 30 30 29 27 28 27 26 23 20 17 18 19 23 26 28 29 29 28 27 26 26 26 26 24 23 21 20 19 19 19 19 19
18 20 26 25 23 28 31 32 35 38 35 33 34 33 30 28 27 25 24 23 20 19 19 21 24 27 28 29 28 27 26 26 27 28 29 27 25 24 23 22 21 19 18 19
20 22 24 23 27 30 33 33 35 37 34 32 32 31 29 27 24 21 21 20 20 22 25 27 28 28 27 26 25 25 25 27 28 29 29 28 27 27 27 25 22 20 20 19
20 21 22 23 24 23 20 19 17 16 14 14 16 18 18 17 17 18 18 20 24 27 28 29 29 28 25 24 24 24 24 24 25 27 27 27 27 29 29 27 25 23 22 22
19 20 17 10 7 4 2 1 2 3 2 0 3 6 8 12 15 17 20 23 24 26 27 27 25 24 23 23 23 22 23 23 25 27 28 28 30 31 31 29 27 26 24 24
19 17 8 7 4 5 8 6 7 8 7 4 2 5 9 13 17 19 19 20 21 23 23 22 22 22 22 22 23 24 25 26 28 30 30 31 32 32 31 30 28 25 24 24
20 12 13 13 8 6 5 5 5 3 3 4 6 8 11 15 17 17 18 17 18 18 19 19 20 20 21 22 23 24 25 26 27 29 30 31 32 32 32 30 27 26 25 25
20 15 20 16 11 7 4 1 3 4 4 5 6 9 12 14 16 17 16 15 16 17 18 19 20 21 21 21 21 22 23 24 26 28 29 30 30 30 30 28 25 25 25 26
21 22 23 18 13 6 1 4 6 6 6 7 7 9 11 13 15 15 14 15 16 17 18 19 20 20 19 18 18 20 20 20 20 21 23 25 26 26 26 24 23 24 24 25
23 26 24 21 17 11 4 2 6 8 9 9 10 10 12 13 14 14 14 14 15 16 17 18 19 19 18 17 16 17 16 14 14 15 14 13 14 16 18 20 21 21 21 21
27 27 25 21 17 12 8 4 6 9 10 10 11 11 12 13 13 12 12 12 13 13 14 17 18 17 16 14 13 14 13 12 12 13 10 4 2 8 13 16 17 18 18 19
30 31 28 24 18 14 10 7 7 9 9 9 10 11 11 11 11 10 10 10 11 12 15 17 17 15 13 11 11 11 11 10 10 10 10 7 5 6 9 11 13 14 15 16
32 31 29 27 23 16 12 10 9 9 9 9 10 10 10 10 10 9 9 9 11 13 15 16 16 14 13 11 10 9 9 9 8 8 8 7 6 5 6 7 10 11 12 14
33 33 31 27 21 15 13 13 11 10 8 9 10 10 9 9 9 8 9 10 11 12 13 14 15 15 13 10 9 8 8 8 8 8 8 7 7 6 4 4 6 8 9 11
37 35 31 27 21 17 16 16 14 11 8 8 9 9 8 7 7 8 8 9 10 11 11 12 13 15 13 10 8 7 7 7 7 7 7 7 6 6 5 3 1 2 4 6
38 34 30 26 23 21 20 18 14 11 9 8 8 6 6 5 6 7 8 9 9 9 9 9 12 13 12 10 8 6 6 6 6 6 6 6 6 7 7 6 5 3 1 1
35 32 28 25 23 21 19 17 14 12 10 9 7 4 3 4 5 7 8 8 8 7 7 8 9 10 10 9 9 8 6 5 5 5 5 6 6 6 7 7 6 4 3 2
35 31 28 25 23 20 18 17 16 14 12 10 7 3 1 2 4 6 7 7 7 6 7 8 8 8 9 9 9 9 7 7 6 6 6 6 6 6 7 7 6 5 4 4
36 33 30 27 23 20 20 20 19 16 13 11 8 5 3 2 3 6 8 8 8 8 8 8 8 8 9 10 10 10 10 9 9 8 8 7 7 7 7 8 7 6 5 5
37 34 31 27 25 23 24 23 21 18 15 12 10 8 7 5 4 6 8 9 9 9 9 8 9 10 10 11 12 12 12 12 12 11 10 10 9 9 9 9 9 9 9 8
38 34 31 28 25 24 25 25 23 20 16 14 13 12 10 8 4 3 7 9 9 9 9 9 9 10 11 12 13 14 14 14 14 13 13 12 12 12 12 12 12 12 11 11
38 35 32 29 27 26 28 27 25 21 18 17 16 15 13 10 5 0 4 7 8 8 8 8 9 9 10 11 12 13 14 14 15 15 15 15 15 15 15 14 14 13 13 13
40 37 34 31 29 29 29 28 26 22 19 18 18 18 15 11 7 3 3 4 5 6 6 7 8 9 9 10 11 12 13 14 15 16 16 17 17 17 17 17 16 16 15 15
39 40 38 34 32 31 31 29 26 23 20 19 20 19 17 13 9 6 5 3 2 3 5 6 7 9 9 10 11 12 12 13 13 15 15 16 16 17 17 18 18 18 17 17
37 41 41 38 34 33 33 31 28 24 22 21 21 20 17 13 10 9 7 5 2 1 3 5 6 8 9 10 11 11 11 11 12 14 15 16 16 17 17 18 18 18 18 18
35 39 42 40 37 35 35 33 30 26 23 22 21 19 16 13 11 10 9 8 7 5 4 4 5 6 7 8 9 10 10 11 12 12 14 15 15 16 17 18 18 18 19 19
Wind_Direction
266 263 266 265 263 266 269 272 272 268 267 273 273 271 275 284 291 295 301 301 295 288 286 288 292 296 297 296 293 291 290 289 287 285 286 288 286 279 273 268 262 258 253 250
275 262 264 267 268 267 264 264 264 262 264 267 266 267 271 283 290 294 296 291 287 289 294 296 298 298 296 292 290 289 287 286 284 283 284 285 284 278 271 264 258 253 251 251
270 272 269 272 272 266 265 266 267 267 266 261 260 262 268 277 284 286 287 285 285 289 293 295 297 295 292 288 286 283 279 279 279 278 278 278 276 273 270 267 260 252 248 249
267 268 273 277 275 277 277 275 273 273 270 262 257 259 265 271 276 276 279 281 284 290 294 297 298 296 292 286 282 276 274 274 274 274 273 273 272 270 269 269 266 258 250 247
273 281 289 287 285 280 275 272 273 274 267 251 250 255 260 262 266 274 281 285 289 292 295 297 298 297 294 289 283 278 275 273 273 272 271 270 269 269 270 269 267 260 250 244
272 290 292 272 275 274 244 154 28 41 51 204 253 257 259 270 280 287 290 291 291 293 296 299 300 299 296 292 286 281 278 276 274 274 271 269 267 268 269 267 264 256 246 239
271 283 242 193 155 84 60 43 42 46 45 37 347 283 278 282 287 293 296 297 298 299 302 304 305 304 300 295 290 286 284 282 278 274 270 266 265 265 263 261 257 251 246 240
265 249 186 178 157 122 70 25 7 351 321 297 283 280 281 286 293 300 302 304 303 303 305 306 306 306 303 299 296 294 290 286 282 277 272 267 263 260 258 255 250 250 248 242
249 216 183 181 181 174 146 43 317 293 279 280 283 287 291 297 303 305 309 311 309 309 309 309 309 309 308 306 304 302 299 294 288 281 274 268 262 256 252 250 246 245 243 238
233 195 185 185 185 181 249 331 312 301 299 303 309 308 306 308 308 309 312 314 313 311 311 312 314 317 317 314 311 310 309 306 302 295 284 271 261 251 244 239 233 231 232 230
213 193 191 191 186 179 175 297 308 301 300 306 313 311 310 312 312 313 314 315 317 318 319 324 328 329 325 320 318 321 325 328 330 327 312 282 256 238 225 217 215 218 221 223
210 199 196 193 187 186 186 205 281 292 292 298 304 304 308 313 313 315 319 323 327 330 336 341 341 334 328 325 328 337 346 353 358 2 4 12 180 190 193 199 205 211 217 220
219 210 200 195 194 197 203 212 248 273 281 292 298 302 310 314 313 316 325 331 336 341 349 351 346 342 341 342 348 357 6 12 17 25 35 52 98 151 177 191 200 209 216 220
214 202 195 195 200 205 209 211 225 252 274 292 301 309 314 314 314 318 327 331 335 343 351 352 351 356 1 4 7 15 22 26 30 39 50 64 86 121 162 186 198 207 213 216
202 194 193 198 202 204 210 219 225 239 265 287 300 310 312 313 318 323 331 333 336 344 349 351 359 8 13 15 19 30 38 41 43 50 59 70 82 97 123 163 194 208 215 221
196 196 199 201 203 208 215 219 220 228 250 271 288 302 309 316 327 335 339 339 339 342 346 354 9 18 20 21 25 35 44 49 52 53 57 61 64 65 67 73 101 214 231 237
196 199 198 200 208 214 214 212 213 223 243 259 279 297 312 329 346 351 346 342 341 341 347 3 17 22 23 26 30 35 43 49 50 50 51 53 50 44 39 36 37 39 22 277
198 200 204 212 220 222 216 207 209 222 238 249 266 285 313 346 2 0 354 350 347 347 1 18 23 22 24 29 33 37 42 44 44 44 44 44 39 30 25 26 29 32 30 3
200 203 210 219 226 226 214 209 213 218 223 231 240 237 248 9 14 12 10 8 6 12 29 35 33 29 28 30 31 33 35 35 34 31 30 31 30 28 26 27 30 32 29 20
203 204 206 209 212 210 209 213 215 214 213 217 214 201 183 117 56 33 25 23 29 39 44 46 45 42 39 36 36 37 36 35 34 31 29 27 26 25 24 25 26 26 23 16
201 202 204 205 205 206 208 211 211 209 207 206 198 188 172 146 102 50 29 28 36 43 49 51 49 48 47 46 46 45 44 43 42 39 37 35 35 35 35 35 35 34 32 28
198 200 202 205 206 205 204 205 205 204 203 198 190 183 177 168 147 51 26 29 37 43 49 53 54 52 51 50 49 48 49 49 49 48 48 47 45 44 43 42 42 41 38 33
199 200 203 205 202 199 200 200 200 202 200 194 189 187 186 187 190 309 8 22 34 43 50 56 59 59 57 56 55 55 56 56 57 57 56 54 52 50 49 48 47 44 40 37
203 202 205 205 201 199 199 198 199 201 198 193 192 193 195 201 213 249 318 359 27 45 54 59 63 66 66 65 64 63 62 62 61 60 58 57 55 54 53 52 52 50 46 42
208 206 205 203 200 198 198 197 199 200 197 195 197 200 203 210 225 245 270 302 1 47 62 66 69 71 71 70 70 69 67 64 62 59 58 56 55 54 53 52 51 48 45 42
211 208 205 201 200 199 198 197 198 197 196 199 202 205 209 217 231 243 247 247 224 144 92 80 77 76 75 73 72 70 67 64 61 58 57 55 54 52 51 50 48 45 42 39
212 208 203 200 200 200 198 196 196 196 198 202 206 208 211 219 230 232 223 211 199 183 152 113 93 83 79 76 74 71 66 64 62 60 58 56 54 52 50 48 44 42 40 38
Height
5780 5781 5781 5781 5782 5783 5782 5781 5781 5783 5783 5785 5783 5782 5782 5782 5781 5780 5780 5778 5776 5773 5772 5770 5769 5767 5764 5762 5760 5758 5756 5755 5754 5754 5754 5753 5753 5753 5753 5754 5754 5755 5756 5757
5773 5773 5773 5774 5776 5775 5773 5772 5772 5773 5776 5779 5776 5774 5775 5776 5775 5774 5773 5772 5771 5769 5768 5766 5764 5762 5758 5755 5753 5750 5749 5747 5747 5746 5746 5746 5746 5746 5746 5747 5748 5749 5750 5751
5767 5767 5766 5769 5769 5765 5763 5763 5763 5762 5767 5768 5767 5767 5768 5769 5769 5768 5767 5765 5765 5764 5763 5762 5759 5756 5753 5749 5746 5744 5742 5740 5739 5738 5738 5738 5738 5738 5738 5739 5740 5741 5743 5744
5760 5762 5761 5764 5759 5756 5754 5754 5753 5751 5753 5756 5758 5760 5762 5763 5763 5762 5761 5760 5759 5758 5756 5754 5752 5749 5745 5742 5739 5736 5735 5734 5732 5730 5729 5729 5729 5729 5730 5731 5732 5733 5735 5737
5754 5754 5754 5753 5750 5747 5746 5745 5745 5745 5746 5748 5751 5753 5756 5757 5758 5758 5757 5756 5754 5751 5749 5746 5743 5740 5737 5734 5732 5730 5728 5727 5725 5723 5721 5720 5720 5720 5721 5722 5724 5726 5728 5730
5749 5748 5748 5749 5747 5744 5744 5743 5744 5745 5746 5747 5749 5752 5754 5754 5754 5753 5752 5750 5748 5745 5742 5739 5736 5733 5730 5727 5724 5722 5721 5719 5718 5716 5714 5713 5712 5711 5712 5713 5715 5717 5720 5723
5743 5744 5744 5746 5746 5745 5746 5746 5745 5745 5746 5747 5749 5751 5752 5751 5750 5749 5748 5745 5742 5739 5736 5733 5730 5726 5723 5720 5717 5715 5713 5711 5709 5707 5705 5704 5703 5703 5703 5704 5706 5709 5712 5715
5738 5740 5743 5742 5742 5743 5744 5746 5746 5746 5747 5748 5749 5749 5749 5748 5747 5745 5743 5740 5737 5734 5731 5727 5724 5720 5717 5713 5710 5707 5704 5701 5698 5696 5694 5693 5693 5693 5693 5695 5697 5701 5704 5708
5733 5737 5738 5737 5737 5738 5740 5742 5745 5746 5747 5747 5748 5748 5746 5745 5742 5740 5738 5736 5733 5730 5726 5722 5719 5715 5710 5706 5703 5699 5695 5692 5688 5685 5683 5682 5682 5682 5684 5686 5689 5693 5697 5701
5726 5730 5732 5734 5736 5738 5739 5741 5743 5744 5744 5744 5745 5744 5743 5741 5738 5736 5734 5732 5729 5725 5722 5718 5713 5709 5705 5701 5697 5693 5689 5685 5680 5676 5673 5670 5670 5671 5674 5678 5682 5686 5690 5694
5720 5724 5727 5730 5731 5732 5733 5738 5741 5742 5742 5742 5742 5741 5740 5738 5735 5733 5731 5728 5725 5722 5718 5713 5708 5704 5700 5696 5693 5689 5684 5680 5675 5670 5665 5662 5661 5663 5667 5671 5676 5681 5685 5688
5714 5719 5722 5725 5727 5729 5730 5732 5737 5739 5739 5739 5739 5738 5737 5735 5732 5730 5727 5725 5722 5719 5715 5711 5706 5702 5697 5694 5690 5686 5682 5678 5674 5669 5665 5661 5661 5662 5666 5670 5674 5678 5681 5684
5707 5711 5716 5720 5722 5725 5726 5728 5732 5735 5736 5736 5736 5736 5734 5732 5729 5727 5724 5722 5720 5717 5713 5709 5705 5700 5696 5692 5688 5685 5681 5678 5675 5672 5669 5667 5666 5667 5669 5671 5674 5677 5680 5682
5698 5703 5709 5715 5718 5720 5723 5725 5728 5731 5732 5732 5733 5732 5731 5729 5726 5724 5722 5720 5718 5715 5711 5708 5704 5699 5694 5690 5688 5685 5682 5680 5678 5675 5673 5671 5670 5671 5671 5673 5675 5676 5678 5680
5690 5696 5703 5709 5713 5716 5719 5722 5725 5727 5729 5729 5729 5729 5728 5726 5724 5722 5720 5718 5716 5713 5710 5707 5703 5697 5693 5690 5688 5686 5684 5682 5680 5678 5676 5675 5674 5673 5674 5674 5675 5676 5677 5678
5682 5690 5697 5703 5708 5711 5715 5718 5721 5723 5725 5726 5727 5726 5725 5724 5722 5720 5718 5716 5714 5712 5709 5706 5701 5697 5694 5691 5689 5687 5686 5684 5682 5681 5679 5678 5677 5676 5676 5676 5676 5676 5676 5677
5679 5686 5693 5699 5703 5706 5710 5713 5717 5720 5723 5724 5724 5724 5723 5722 5720 5718 5717 5715 5713 5711 5708 5705 5701 5698 5695 5693 5691 5689 5687 5685 5684 5682 5681 5680 5679 5678 5677 5677 5676 5676 5676 5676
5677 5684 5690 5696 5700 5703 5707 5710 5714 5717 5720 5721 5722 5722 5721 5720 5719 5718 5716 5714 5712 5709 5707 5704 5701 5699 5697 5695 5692 5690 5688 5686 5685 5683 5682 5681 5680 5679 5678 5677 5677 5676 5676 5675
5673 5680 5686 5692 5697 5701 5705 5708 5711 5713 5716 5719 5719 5720 5719 5719 5718 5717 5715 5714 5711 5709 5706 5704 5702 5700 5698 5696 5694 5691 5689 5688 5686 5685 5683 5682 5681 5680 5679 5678 5677 5676 5676 5675
5669 5675 5679 5685 5691 5696 5701 5704 5707 5710 5714 5716 5717 5718 5718 5718 5718 5717 5716 5714 5711 5708 5706 5704 5703 5701 5699 5697 5695 5693 5691 5689 5687 5686 5684 5683 5681 5680 5679 5678 5677 5676 5675 5675
5664 5670 5676 5681 5686 5690 5695 5700 5704 5708 5711 5713 5714 5716 5717 5717 5717 5717 5716 5714 5712 5709 5707 5705 5704 5703 5701 5699 5697 5695 5693 5691 5689 5687 5686 5684 5682 5681 5680 5679 5678 5676 5675 5674
5659 5666 5672 5677 5682 5687 5692 5696 5701 5704 5708 5710 5712 5714 5715 5716 5717 5717 5716 5715 5712 5710 5708 5707 5706 5704 5703 5701 5699 5698 5696 5694 5692 5690 5688 5686 5684 5683 5681 5680 5679 5678 5677 5675
5654 5661 5667 5673 5678 5683 5688 5692 5697 5701 5705 5707 5710 5712 5713 5715 5716 5717 5717 5716 5714 5712 5710 5709 5707 5706 5705 5704 5702 5701 5699 5697 5695 5693 5691 5689 5687 5685 5684 5682 5681 5680 5679 5677
5649 5655 5662 5669 5675 5680 5684 5689 5694 5698 5702 5705 5707 5709 5711 5713 5715 5716 5716 5716 5715 5713 5712 5710 5709 5708 5707 5706 5705 5703 5702 5700 5698 5697 5695 5693 5691 5689 5687 5686 5684 5683 5681 5679
5643 5650 5657 5665 5671 5676 5680 5685 5691 5695 5699 5702 5704 5706 5709 5711 5713 5714 5715 5715 5715 5714 5713 5712 5711 5710 5709 5708 5707 5706 5705 5703 5702 5700 5699 5697 5695 5693 5691 5689 5688 5686 5684 5682
5637 5644 5651 5659 5666 5671 5676 5681 5687 5691 5695 5698 5700 5703 5706 5708 5710 5711 5713 5713 5714 5714 5714 5713 5713 5712 5711 5710 5710 5709 5708 5707 5705 5704 5703 5701 5699 5697 5695 5693 5691 5689 5687 5685
5630 5637 5645 5654 5662 5667 5672 5677 5682 5686 5690 5694 5697 5700 5703 5705 5707 5708 5710 5711 5712 5713 5714 5714 5714 5713 5713 5713 5712 5712 5711 5710 5709 5707 5706 5704 5703 5701 5699 5697 5695 5693 5691 5688